sat.trackr.live / text

‹ back to catalog

STARLINK-3706

NORAD 52105 · 2022-029T

PAYLOAD ACTIVE UNKNOWN

§ Identity

Operator
Country
US
Launch date
2022-03-19
Launch site
AFETR
Launch vehicle
Mass (kg)
RCS (m²)

Purposes: comms

External: N2YO · Heavens-Above · Gunter

§ Orbital elements

Epoch: 2026-05-25T03:19:07.228704Z

Period
95.44 min
Inclination
53.2136°
Eccentricity
0.0001497
Mean motion
15.08859075 rev/d
Perigee alt
538.6 km
Apogee alt
540.7 km
Semi-major
6,917.8 km
B*
1.3491e-4
RAAN
95.9293°
Arg perigee
39.7499°
Mean anomaly
320.3602°
Rev number
23,232

§ Raw data

STARLINK-37061 52105U 22029T   26145.13827811  .00001861  00000+0  13491-3 0  99932 52105  53.2136  95.9293 0001497  39.7499 320.3602 15.08859075232320

JSON: /api/v1/satellites/52105 · /tle

For live sub-satellite position, see the globe view (requires WebGL).

§ Visibility from observer

Set your observer location to see the next 7 days of passes ≥ 10°. The values pass through the URL so the page stays shareable.

No JS? Fill the form by hand. The geolocation button needs JavaScript.